AO-27 - Orbit

View from above orbital plane
View from above orbital plane
View from above satellite
View from above satellite

Ground track
Ground track

The orbit data is extracted from the following two-line orbital elements,

1 22825U 93061C   13168.83321876  .00000031  00000-0  29245-4 0  4103
2 22825 098.6180 112.8508 0007215 287.8270 125.1845 14.29569421 28725
Epoch (UTC): 17 June 2013 19:59:50
Eccentricity: 0.0007215
inclination: 98.6180°
perigee height: 788 km
apogee height: 798 km
right ascension of ascending node: 112.8508°
argument of perigee: 287.8270°
revolutions per day: 14.29569421
mean anomaly at epoch: 125.1845°
orbit number at epoch: 2872

The dashed part of the orbit path shows where the satellite is in the earth's shadow,  

Developed and maintained by Chris Peat, Heavens-Above GmbH. Please read the updated FAQ before sending e-mail. Imprint. DLR